This demonstration page uses our WeatherBlox Daily Observations layout. Learn more.

Left ArrowRight Arrow

34.74481, -87.66753

Hourly Observations for April 24, 2015

Temp ( °F °C ) Dew Point ( °F °C ) Humidity (%) Winds ( mph kmh ) Pressure ( in mb ) Visibility ( mi km ) Precip ( " mm )
12:53 am 00:53 Clear 51 10.6 40 4.4 66 66 ENE 5 7 30.07 1018 10 16 0.00 0.00
1:53 am 01:53 Clear 49 9.4 41 5 74 74 Calm 30.06 1018 10 16 0.00 0.00
2:53 am 02:53 Clear 48 8.9 41 5 77 77 Calm 30.07 1018 10 16 0.00 0.00
3:53 am 03:53 Clear 47 8.3 41 5 80 80 Calm 30.08 1019 10 16 0.00 0.00
4:53 am 04:53 Clear 47 8.3 39 3.9 74 74 ENE 3 6 30.06 1018 10 16 0.00 0.00
5:53 am 05:53 Clear 45 7.2 39 3.9 80 80 Calm 30.08 1019 10 16 0.00 0.00
6:53 am 06:53 Sunny 49 9.4 36 2.2 61 61 ENE 5 7 30.10 1019 10 16 0.00 0.00
7:53 am 07:53 Sunny 54 12.2 38 3.3 55 55 E 5 7 30.09 1019 10 16 0.00 0.00
8:53 am 08:53 Sunny 58 14.4 34 1.1 41 41 ESE 7 11 30.10 1019 10 16 0.00 0.00
9:53 am 09:53 Sunny 61 16.1 41 5 48 48 E 8 13 30.09 1019 10 16 0.00 0.00
10:53 am 10:53 Sunny 64 17.8 38 3.3 38 38 E 7 11 30.07 1018 10 16 0.00 0.00
11:53 am 11:53 Sunny 66 18.9 36 2.2 33 33 SE 8 13 30.06 1018 10 16 0.00 0.00
12:53 pm 12:53 Mostly Cloudy 66 18.9 37 2.8 34 34 E 5 7 30.03 1017 10 16 0.00 0.00
1:53 pm 13:53 Partly Cloudy 68 20 42 5.6 39 39 E 8 13 30.01 1016 10 16 0.00 0.00
2:53 pm 14:53 Mostly Cloudy 68 20 43 6.1 40 40 ENE 3 6 29.98 1015 10 16 0.00 0.00
3:53 pm 15:53 Mostly Cloudy 67 19.4 44 6.7 44 44 E 8 13 29.96 1015 10 16 0.00 0.00
4:53 pm 16:53 Cloudy 66 18.9 45 7.2 47 47 ESE 5 7 29.96 1014 10 16 0.00 0.00
5:53 pm 17:53 Cloudy 64 17.8 47 8.3 54 54 N 6 9 29.96 1015 10 16 0.00 0.00
6:53 pm 18:53 Cloudy 64 17.8 45 7.2 50 50 Calm 29.93 1014 10 16 0.00 0.00
7:53 pm 19:53 Cloudy 61 16.1 47 8.3 60 60 E 5 7 29.90 1013 10 16 0.00 0.00
8:53 pm 20:53 Cloudy with Light Rain 59 15 50 10 72 72 E 7 11 29.90 1013 10 16 0.01 0.25
9:53 pm 21:53 Cloudy 60 15.6 49 9.4 67 67 SE 8 13 29.88 1012 10 16 0.00 0.03
10:53 pm 22:53 Cloudy with Rain 59 15 52 11.1 78 78 NE 5 7 29.88 1012 6 10 0.03 0.76
11:53 pm 23:53 Cloudy with Heavy Rain 57 13.9 53 11.7 87 87 E 6 9 29.88 1012 4 6 0.10 2.54

Powered by AerisWeather